Location: Carthage
(33.8834°N, 106.6595°W)
Time: 03:36:47
(UTC+00:00)

Cosmos 2322 Rocket - Pass Details

Date: 21 May 2026
Orbit: 831 x 850 km, 71.0° (Epoch: 9 June)

Event Time Altitude Azimuth Distance (km) Brightness Sun altitude
Rises 05:35:39 0° 313° (NW) 3,408 6.3 -32.0°
Reaches altitude 10° 05:39:46 10° 284° (WNW) 2,471 5.0 -32.4°
Maximum altitude 05:41:50 12° 263° (W) 2,324 4.6 -32.5°
Enters shadow 05:42:23 12° 257° (WSW) 2,334 4.6 -32.6°
